Location: Unspecified
(34.4950°S, 58.5160°W)
Time: 15:06:01
(UTC+00:00)

BlueWalker 3 - Pass Details

Date: 17 February 2026
Orbit: 451 x 458 km, 53.2° (Epoch: 4 March)

Event Time Altitude Azimuth Distance (km) Brightness Sun altitude
Exits shadow 08:58:53 - 260° (W) 1,938 4.4 -7.0°
Reaches altitude 10° 09:00:14 10° 276° (W) 1,617 3.9 -6.8°
Maximum altitude 09:01:56 13° 304° (WNW) 1,443 3.6 -6.5°
Drops below altitude 10° 09:03:37 10° 332° (NNW) 1,607 4.1 -6.1°
Sets 09:06:43 0° 1° (N) 2,470 5.3 -5.5°
